Home   Weather   Plovdiv   Past weeks

Flag for Bulgaria Past Weather in Plovdiv, Bulgaria — Yesterday and Last 2 Weeks

Now
28 °F

Light snow. Ice fog.


Feels Like: 28 °F
Forecast: 12 / 34 °F
Wind: No wind

Location: Plovdiv Airport

Current Time: Jan 19, 2017 at 11:46:57 pm

Latest Report: Jan 19, 2017 at 11:00 pm


Visibility: 2 mi

Pressure: 30.54 "Hg

Humidity: 100%

Dew Point: 28 °F

Location of PlovdivLocation

Past Weather in Plovdiv — Graph

°F

Plovdiv Temperature Yesterday

Maximum temperature yesterday: 34 °F (at 10:00 am)
Minimum temperature yesterday: 30 °F (at 9:00 pm)
Average temperature yesterday: 32 °F

High & Low Weather Summary for the Past Weeks

 TemperatureHumidityPressure
High41 °F (Jan 12, 10:00 pm)100% (Jan 4, 11:00 pm)30.54 "Hg (Jan 4, 11:00 pm)
Low7 °F (Jan 11, 7:30 am)45% (Jan 12, 10:00 pm)29.59 "Hg (Jan 6, 3:00 am)
Average25 °F85%30.01 "Hg
* Reported Jan 4 11:00 pm — Jan 19 11:00 pm, Plovdiv, Weather by CustomWeather, © 2017

Note: Actual official high and low records may vary slightly from our data, if they occured in-between our weather recording intervals... More about our weather records

Advertising

Plovdiv Weather History for the Previous 24 Hours

Scroll right to see more
 ConditionsComfort  
Time TempWeatherWind HumidityBarometerVisibility
11:00 pm
Thu, Jan 19
28 °FLight snow. Ice fog.No wind100%30.54 "Hg2 mi
10:30 pm28 °FLight snow. Ice fog.2 mph100%30.54 "Hg2 mi
10:00 pm28 °FLight snow. Ice fog.2 mph100%30.54 "Hg2 mi
9:30 pm28 °FLight snow. Ice fog.2 mph100%30.51 "Hg2 mi
9:00 pm28 °FLight snow. Mostly cloudy.2 mph100%30.51 "Hg2 mi
8:30 pm28 °FLight snow. Ice fog.2 mph100%30.51 "Hg2 mi
8:00 pm28 °FSleet. Ice fog.2 mph100%30.51 "Hg1 mi
7:30 pm30 °FLight snow. Mostly cloudy.No wind100%30.51 "Hg1 mi
7:00 pm30 °FLight snow. Mostly cloudy.2 mph100%30.51 "Hg1 mi
6:30 pm30 °FLight snow. Mostly cloudy.2 mph100%30.48 "Hg1 mi
6:00 pm30 °FLight snow. Mostly cloudy.2 mph100%30.48 "Hg2 mi
5:30 pm30 °FLight snow. Mostly cloudy.3 mph100%30.48 "Hg1 mi
5:00 pm30 °FLight snow. Overcast.5 mph100%30.48 "Hg1 mi
4:30 pm30 °FLight snow. Low clouds.6 mph100%30.48 "Hg1 mi
4:00 pm30 °FSleet. Low clouds.6 mph100%30.48 "Hg1 mi
3:30 pm30 °FSleet. Mostly cloudy.6 mph100%30.45 "Hg1 mi
3:00 pm30 °FSleet. Mostly cloudy.8 mph100%30.45 "Hg2 mi
2:30 pm30 °FLight snow. More clouds than sun.8 mph100%30.45 "Hg2 mi
2:00 pm30 °FChilly.3 mph100%30.45 "Hg1 mi
1:30 pm30 °FLight snow. More clouds than sun.5 mph100%30.45 "Hg1 mi
1:00 pm30 °FLight snow. Overcast.5 mph100%30.48 "Hg1 mi
12:30 pm30 °FLight snow. Overcast.6 mph100%30.48 "Hg1 mi
12:00 pm30 °FLight snow. More clouds than sun.5 mph100%30.48 "Hg1 mi
11:30 am30 °FLight snow. Cloudy.6 mph100%30.48 "Hg2 mi
11:00 am30 °FLight snow. Mostly cloudy.6 mph100%30.48 "Hg1 mi
10:30 am30 °FLight snow. Mostly cloudy.6 mph100%30.48 "Hg2 mi
10:00 am30 °FChilly.5 mph100%30.48 "Hg1 mi
9:30 am30 °FLight snow. Overcast.6 mph100%30.45 "Hg1 mi
9:00 am30 °FLight snow. Mostly cloudy.6 mph100%30.45 "Hg1 mi
8:30 am30 °FLight snow. More clouds than sun.9 mph100%30.45 "Hg2 mi
8:00 am30 °FSnow. Ice fog.12 mph100%30.42 "Hg1 mi
7:30 am30 °FLight snow. Overcast.10 mph100%30.42 "Hg1 mi
7:00 am30 °FLight snow. Mostly cloudy.8 mph100%30.42 "Hg2 mi
6:30 am30 °FLight snow. Overcast.8 mph93%30.42 "Hg2 mi
6:00 am30 °FSnow flurries. Overcast.10 mph93%30.42 "HgN/A
5:30 am30 °FOvercast.12 mph93%30.42 "HgN/A
5:00 am30 °FOvercast.13 mph93%30.42 "HgN/A
4:30 am32 °FSnow flurries. Overcast.13 mph87%30.42 "HgN/A
4:00 am30 °FOvercast.14 mph93%30.42 "HgN/A
3:30 am30 °FSnow flurries. Overcast.14 mph93%30.42 "HgN/A
3:00 am30 °FOvercast.10 mph93%30.42 "HgN/A
2:30 am30 °FLight snow. Overcast.10 mph93%30.42 "Hg4 mi
2:00 am30 °FLight snow. Overcast.13 mph93%30.42 "Hg2 mi
1:30 am30 °FLight snow. Overcast.14 mph93%30.42 "Hg2 mi
1:00 am30 °FLight snow. Mostly cloudy.15 mph100%30.42 "Hg4 mi
12:30 am30 °FLight snow. Mostly cloudy.15 mph100%30.42 "HgN/A
12:00 am30 °FLight snow. Overcast.16 mph100%30.42 "Hg2 mi
11:30 pm
Wed, Jan 18
30 °FSnow flurries. Overcast.17 mph100%30.42 "Hg5 mi
11:00 pm30 °FSnow flurries. Overcast.15 mph100%30.42 "HgN/A
Weather by CustomWeather, © 2017

See weather overviewHow to use our weather pages